Find Starlink 33707

NORAD ID: 63401 Int'l Des: 2025-065 Owner: SPXS Country: US Constellation: starlink operational
LEOCIRCULAR

Live-Position

3D-Globus wird geladen...

Über Starlink 33707

Beschreibung wird geladen...

Nächste Überflüge

Passes for default location (London). Set your location on the main map for personalized predictions.

Höhenverlauf

Loading altitude history...

Zweizeiliger Elementsatz

1 63401U 25065C 26123.43236668 .00021278 00000-0 78007-3 0 9999
2 63401 42.9996 157.7926 0001667 265.4573 94.6089 15.27599083 61219
Epoch: 3. Mai 2026 • Age: 16 hours

Aktueller Status

Höhe 483.9 km
Geschwindigkeit 7.63 km/s
Subsatellitenpunkt 27.86°N, 37.66°E
Startdatum 31. März 2025
Alter 1 years
Typ internet

Technische Details

Klassifizierung Payload
Masse 575.00 kg
Trockenmasse 530.00 kg
Gesamtmasse 575.00 kg
Länge 0.30 m
Durchmesser 4.10 m
Spannweite 29.00 m
Form Box + pan
Hersteller SPXS
Bus-Typ Starlink V2MO
Phasenstatus In Orbit
Besitzer/Staat SPXS/US

Most Searched